Powrót do katalogu

STARLINK-1067

AktywnyŁącznośćVLEO
NORAD 44771·PAYLOAD·🇺🇸 United States

Wystrzelony Nov 11, 2019 z Cape Canaveral Space Force Station

Loading…

Następne Przeloty (najbliższe 24 godziny)

TLE

ŚwieżeSource: CelesTrak SupGP

Epoka: Sep 14, 2026, 20:31 UTC

1 44771C 19074BL  26257.85534722  .01232500  00000+0  62743-3 0  2576
2 44771  53.0268 336.4697 0010509 349.7885  37.9115 16.19665179    14

Śledź STARLINK-1067 w czasie rzeczywistym z AllMySat

Download on the App Store